Regional Weather Roundup
Issued by NWS

Home | Current Version | Previous Version | Text Only | Print | Product List | Glossary On
Versions: 1 2 3 4 5 6 7 8 9 10 11 12 13 14 15 16 17 18 19 20 21 22 23 24 25 26 27 28 29 30 31 32 33 34 35 36 37 38 39 40 41 42 43 44 45 46 47 48 49 50
000
ASUS43 KOAX 211610
RWRNE

WEATHER ROUNDUP FOR NEBRASKA
NATIONAL WEATHER SERVICE OMAHA NE
1000 AM CST SAT JAN 21 2017

NOTES: SATELLITE DATA IS BEING USED TO AUGMENT CLOUD COVER ABOVE
       12000 FEET.
       "FAIR" INDICATES FEW OR NO CLOUDS BELOW 12,000 FEET WITH NO
       SIGNIFICANT WEATHER AND/OR OBSTRUCTIONS TO VISIBILITY.

  * THESE STATIONS DO NOT REPORT WEATHER SUCH AS RAIN...SNOW OR FOG.

NEZ001>004-019>022-054>056-211700-
NEBRASKA PANHANDLE

CITY           SKY/WX    TMP DP  RH WIND       PRES   REMARKS
SCOTTSBLUFF    SUNNY     28  22  78 CALM      29.41S
ALLIANCE       SUNNY     27  24  89 W7        29.40R WCI  19
CHADRON        MOSUNNY   25  23  92 SW6       29.42R WCI  18
KIMBALL        SUNNY     31  27  84 SW5       29.40R WCI  26
SIDNEY         SUNNY     30  24  78 CALM      29.41R
$$

NEZ057>060-069>072-079>082-211700-
SOUTHWEST NEBRASKA

CITY           SKY/WX    TMP DP  RH WIND       PRES   REMARKS
NORTH PLATTE   SUNNY     32  29  88 W6        29.43R WCI  26
IMPERIAL       SUNNY     33  26  75 W5        29.45R WCI  29
LEXINGTON      SUNNY     34  32  94 W3        29.44R
MCCOOK         SUNNY     34  30  85 W10       29.45S WCI  26
OGALLALA       SUNNY     30  26  86 W7        29.43S WCI  23
$$

NEZ005>010-023>029-035>040-094-211700-
NORTH CENTRAL NEBRASKA

CITY           SKY/WX    TMP DP  RH WIND       PRES   REMARKS
VALENTINE      SUNNY     37  31  78 W8        29.39R WCI  31
AINSWORTH      SUNNY     37  33  89 W8        29.39R WCI  30
BROKEN BOW     SUNNY     36  33  89 S5        29.41R WCI  32
O`NEILL        MOSUNNY   38  35  89 W8        29.40R WCI  32
ORD            SUNNY     39  33  79 CALM      29.42R
THEDFORD       SUNNY     36  33  90 NW5       29.41S WCI  32
$$

NEZ041-046>049-061>064-073>077-083>087-211700-
SOUTH CENTRAL NEBRASKA

CITY           SKY/WX    TMP DP  RH WIND       PRES   REMARKS
GRAND ISLAND   SUNNY     38  36  92 W8        29.43F WCI  32
AURORA         SUNNY     37  37 100 NW7       29.43F WCI  31
HASTINGS       SUNNY     37  34  89 W6        29.45R WCI  32
HEBRON         SUNNY     36  36 100 W7        29.45F WCI  31
HOLDREGE       SUNNY     37  34  89 W7        29.45R WCI  31
KEARNEY *      SUNNY     37 -11  12 W6        29.44R WCI  33
YORK           SUNNY     37  37 100 W7        29.44F WCI  32
$$

NEZ011>018-030>034-042>045-211700-
NORTHEAST NEBRASKA

CITY           SKY/WX    TMP DP  RH WIND       PRES   REMARKS
NORFOLK        MOSUNNY   38  33  82 W8        29.41R WCI  32
ALBION         MOSUNNY  N/A N/A N/A CALM      29.43R
BLAIR          FOG       37  36  99 SW9       29.43R VSB 1   WCI  30
FREMONT        SUNNY     38  38 100 SW3       29.44R
TEKAMAH        CLOUDY    36  35  96 SW10      29.44R FOG     WCI  28
WAYNE          MOSUNNY   38  35  88 W8        29.41R WCI  32
$$

NEZ050>053-065>068-078-088>093-211700-
SOUTHEAST NEBRASKA

CITY           SKY/WX    TMP DP  RH WIND       PRES   REMARKS
LINCOLN        SUNNY     40  36  86 W7        29.46S
OMAHA EPPLEY   CLOUDY    40  36  86 SW7       29.45R FOG
BEATRICE       SUNNY     38  38 100 W8        29.47R WCI  32
FALLS CITY     CLOUDY    40  39  97 W6        29.48R
NEBRASKA CITY  CLOUDY    36  36 100 W6        29.46R FOG     WCI  31
PLATTSMOUTH    CLOUDY    37  35  94 W5        29.45R FOG     WCI  33
$$

NEZ044-045-051>053-067-211700-
OMAHA AREA

CITY           SKY/WX    TMP DP  RH WIND       PRES   REMARKS
OMAHA EPPLEY   CLOUDY    40  36  86 SW7       29.45R FOG
BLAIR          FOG       37  36  99 SW9       29.43R VSB 1   WCI  30
FREMONT        SUNNY     38  38 100 SW3       29.44R
MILLARD        MOSUNNY   41  40  97 W6        29.45S
OFFUTT AFB     PTSUNNY   38  38 100 CALM      29.45S FOG
PLATTSMOUTH    CLOUDY    37  35  94 W5        29.45R FOG     WCI  33
WAHOO          FAIR      38  37  97 W5        29.43S WCI  35
$$




USA.gov is the U.S. government's official web portal to all federal, state and local government web resources and services.